• In Hungary
  • List of Countries
  • For 7 days
  • Water Temperature
  • Satellite Maps
  • Weather Map
  • News
  • Weather Widgets
  • user-avatar
    Login

    Hourly Weather Oklahoma City

    Today, 24 October, Tuesday

    Time Temperature Precipitation Wind Pressure Humidity
    00:00 +12°C° 0 mm 5 mps 736 mmHg 35%
    01:00 +12°C° 0 mm 5 mps 736 mmHg 33%
    02:00 +10°C° 0 mm 5 mps 736 mmHg 32%
    03:00 +10°C° 0 mm 6 mps 736 mmHg 31%
    04:00 +10°C° 0 mm 6 mps 736 mmHg 30%
    05:00 +10°C° 0 mm 6 mps 736 mmHg 30%
    06:00 +11°C° 0 mm 7 mps 736 mmHg 31%
    07:00 +12°C° 0 mm 8 mps 737 mmHg 32%
    08:00 +13°C° 0 mm 10 mps 737 mmHg 33%
    09:00 +14°C° 0 mm 10 mps 737 mmHg 31%
    10:00 +14°C° 0 mm 10 mps 737 mmHg 30%
    11:00 +16°C° 0 mm 10 mps 737 mmHg 29%
    12:00 +17°C° 0 mm 10 mps 737 mmHg 28%
    13:00 +17°C° 0 mm 10 mps 736 mmHg 28%
    14:00 +17°C° 0 mm 9 mps 735 mmHg 27%
    15:00 +15°C° 0 mm 7 mps 735 mmHg 30%
    16:00 +14°C° 0 mm 6 mps 735 mmHg 33%
    17:00 +12°C° 0 mm 4 mps 735 mmHg 36%
    18:00 +12°C° 0 mm 4 mps 735 mmHg 37%
    19:00 +11°C° 0 mm 3 mps 735 mmHg 37%
    20:00 +10°C° 0 mm 3 mps 736 mmHg 38%
    21:00 +10°C° 0 mm 3 mps 736 mmHg 38%
    22:00 +9°C° 0 mm 3 mps 736 mmHg 38%
    23:00 +9°C° 0 mm 3 mps 736 mmHg 38%

    Tomorrow, 25 October, Wednesday

    Time Temperature Precipitation Wind Pressure Humidity
    00:00 +9°C° 0 mm 3 mps 736 mmHg 37%
    01:00 +8°C° 0 mm 3 mps 735 mmHg 37%
    02:00 +8°C° 0 mm 3 mps 735 mmHg 36%
    03:00 +8°C° 0 mm 3 mps 735 mmHg 36%
    04:00 +8°C° 0 mm 3 mps 734 mmHg 35%
    05:00 +8°C° 0 mm 3 mps 734 mmHg 34%
    06:00 +10°C° 0 mm 3 mps 734 mmHg 34%
    07:00 +11°C° 0 mm 4 mps 734 mmHg 34%
    08:00 +13°C° 0 mm 4 mps 734 mmHg 34%
    09:00 +17°C° 0 mm 4 mps 733 mmHg 32%
    10:00 +19°C° 0 mm 4 mps 733 mmHg 30%
    11:00 +21°C° 0 mm 5 mps 732 mmHg 28%
    12:00 +22°C° 0 mm 5 mps 731 mmHg 28%
    13:00 +23°C° 0 mm 5 mps 730 mmHg 28%
    14:00 +23°C° 0 mm 6 mps 729 mmHg 28%
    15:00 +22°C° 0 mm 5 mps 728 mmHg 33%
    16:00 +20°C° 0 mm 5 mps 728 mmHg 38%
    17:00 +18°C° 0 mm 4 mps 727 mmHg 43%
    18:00 +17°C° 0 mm 4 mps 727 mmHg 43%
    19:00 +16°C° 0 mm 5 mps 727 mmHg 42%
    20:00 +15°C° 0 mm 5 mps 726 mmHg 42%
    21:00 +15°C° 0 mm 6 mps 726 mmHg 41%
    22:00 +15°C° 0 mm 6 mps 725 mmHg 40%
    23:00 +15°C° 0 mm 6 mps 725 mmHg 40%

    Day after tomorrow, 26 October, Thursday

    Time Temperature Precipitation Wind Pressure Humidity
    00:00 +15°C° 0 mm 6 mps 724 mmHg 39%
    01:00 +15°C° 0 mm 6 mps 724 mmHg 39%
    02:00 +15°C° 0 mm 6 mps 723 mmHg 39%
    03:00 +15°C° 0 mm 7 mps 723 mmHg 38%
    04:00 +14°C° 0 mm 7 mps 722 mmHg 37%
    05:00 +14°C° 0 mm 7 mps 722 mmHg 35%
    06:00 +15°C° 0 mm 8 mps 722 mmHg 36%
    07:00 +16°C° 0 mm 8 mps 722 mmHg 36%
    08:00 +17°C° 0 mm 9 mps 723 mmHg 37%
    09:00 +20°C° 0 mm 8 mps 723 mmHg 36%
    10:00 +22°C° 0 mm 8 mps 723 mmHg 34%
    11:00 +24°C° 0 mm 7 mps 723 mmHg 33%
    12:00 +24°C° 0 mm 7 mps 723 mmHg 33%
    13:00 +24°C° 0 mm 7 mps 723 mmHg 33%
    14:00 +24°C° 0 mm 7 mps 723 mmHg 32%
    15:00 +23°C° 0 mm 7 mps 723 mmHg 36%
    16:00 +21°C° 0 mm 7 mps 724 mmHg 41%
    17:00 +18°C° 0 mm 7 mps 725 mmHg 45%
    18:00 +17°C° 0 mm 7 mps 726 mmHg 41%
    19:00 +16°C° 0 mm 8 mps 727 mmHg 38%
    20:00 +13°C° 0 mm 9 mps 729 mmHg 34%
    21:00 +12°C° 0 mm 9 mps 729 mmHg 34%
    22:00 +12°C° 0 mm 8 mps 730 mmHg 34%
    23:00 +11°C° 0 mm 8 mps 731 mmHg 34%

    27 October, Friday

    Time Temperature Precipitation Wind Pressure Humidity
    00:00 +10°C° 0 mm 8 mps 731 mmHg 35%
    01:00 +9°C° 0 mm 8 mps 732 mmHg 36%
    02:00 +8°C° 0 mm 7 mps 732 mmHg 37%
    03:00 +8°C° 0 mm 7 mps 732 mmHg 38%
    04:00 +6°C° 0 mm 7 mps 733 mmHg 39%
    05:00 +6°C° 0 mm 7 mps 733 mmHg 40%
    06:00 +6°C° 0 mm 8 mps 734 mmHg 40%
    07:00 +6°C° 0 mm 8 mps 735 mmHg 39%
    08:00 +6°C° 0 mm 9 mps 735 mmHg 39%
    09:00 +6°C° 0 mm 9 mps 735 mmHg 37%
    10:00 +7°C° 0 mm 8 mps 735 mmHg 35%
    11:00 +9°C° 0 mm 8 mps 735 mmHg 33%
    12:00 +9°C° 0 mm 8 mps 735 mmHg 33%
    13:00 +9°C° 0 mm 8 mps 735 mmHg 32%
    14:00 +9°C° 0 mm 8 mps 734 mmHg 31%
    15:00 +8°C° 0 mm 6 mps 734 mmHg 33%
    16:00 +7°C° 0 mm 5 mps 735 mmHg 36%
    17:00 +6°C° 0 mm 4 mps 735 mmHg 38%
    18:00 +5°C° 0 mm 4 mps 735 mmHg 40%
    19:00 +4°C° 0 mm 4 mps 736 mmHg 42%
    20:00 +4°C° 0 mm 3 mps 736 mmHg 44%
    21:00 +3°C° 0 mm 4 mps 736 mmHg 44%
    22:00 +3°C° 0 mm 4 mps 736 mmHg 45%
    23:00 +1°C° 0 mm 4 mps 736 mmHg 46%

    28 October, Saturday

    Time Temperature Precipitation Wind Pressure Humidity
    00:00 +1°C° 0 mm 4 mps 736 mmHg 46%
    01:00 0°C° 0 mm 4 mps 736 mmHg 46%
    02:00 0°C° 0 mm 4 mps 736 mmHg 46%
    03:00 0°C° 0 mm 4 mps 736 mmHg 45%
    04:00 -1°C° 0 mm 4 mps 736 mmHg 43%
    05:00 -1°C° 0 mm 4 mps 736 mmHg 42%
    06:00 0°C° 0 mm 4 mps 737 mmHg 38%
    07:00 +1°C° 0 mm 5 mps 737 mmHg 34%
    08:00 +3°C° 0 mm 5 mps 737 mmHg 30%
    09:00 +5°C° 0 mm 5 mps 737 mmHg 28%
    10:00 +7°C° 0 mm 5 mps 737 mmHg 25%
    11:00 +8°C° 0 mm 5 mps 737 mmHg 22%
    12:00 +9°C° 0 mm 5 mps 736 mmHg 22%
    13:00 +10°C° 0 mm 4 mps 735 mmHg 21%
    14:00 +11°C° 0 mm 4 mps 735 mmHg 21%
    15:00 +9°C° 0 mm 3 mps 734 mmHg 23%
    16:00 +8°C° 0 mm 2 mps 734 mmHg 26%
    17:00 +7°C° 0 mm 1 mps 734 mmHg 28%
    18:00 +7°C° 0 mm 1 mps 734 mmHg 29%
    19:00 +6°C° 0 mm 1 mps 734 mmHg 29%
    20:00 +6°C° 0 mm 1 mps 734 mmHg 30%
    21:00 +5°C° 0 mm 1 mps 734 mmHg 30%
    22:00 +5°C° 0 mm 1 mps 734 mmHg 30%
    23:00 +4°C° 0 mm 2 mps 733 mmHg 31%

    29 October, Sunday

    Time Temperature Precipitation Wind Pressure Humidity
    00:00 +4°C° 0 mm 2 mps 733 mmHg 31%
    01:00 +3°C° 0 mm 2 mps 733 mmHg 32%
    02:00 +3°C° 0 mm 2 mps 733 mmHg 33%
    03:00 +2°C° 0 mm 3 mps 732 mmHg 34%
    04:00 +2°C° 0 mm 3 mps 732 mmHg 35%
    05:00 +1°C° 0 mm 3 mps 732 mmHg 36%
    06:00 +3°C° 0 mm 3 mps 732 mmHg 35%
    07:00 +5°C° 0 mm 4 mps 732 mmHg 34%
    08:00 +6°C° 0 mm 4 mps 732 mmHg 34%
    09:00 +8°C° 0 mm 4 mps 732 mmHg 32%
    10:00 +12°C° 0 mm 4 mps 731 mmHg 30%
    11:00 +14°C° 0 mm 4 mps 731 mmHg 28%
    12:00 +15°C° 0 mm 4 mps 730 mmHg 28%
    13:00 +15°C° 0 mm 4 mps 730 mmHg 28%
    14:00 +17°C° 0 mm 4 mps 729 mmHg 28%
    15:00 +14°C° 0 mm 4 mps 729 mmHg 32%
    16:00 +13°C° 0 mm 3 mps 728 mmHg 37%
    17:00 +12°C° 0 mm 2 mps 728 mmHg 41%
    18:00 +10°C° 0 mm 2 mps 728 mmHg 42%
    19:00 +9°C° 0 mm 2 mps 728 mmHg 42%
    20:00 +8°C° 0 mm 2 mps 729 mmHg 43%
    21:00 +8°C° 0 mm 2 mps 729 mmHg 43%
    22:00 +7°C° 0 mm 2 mps 729 mmHg 42%
    23:00 +8°C° 0 mm 1 mps 729 mmHg 42%

    30 October, Monday

    Time Temperature Precipitation Wind Pressure Humidity
    00:00 +7°C° 0 mm 1 mps 729 mmHg 42%
    01:00 +7°C° 0 mm 1 mps 729 mmHg 41%
    02:00 +6°C° 0 mm 1 mps 729 mmHg 41%
    03:00 +6°C° 0 mm 1 mps 729 mmHg 41%
    04:00 +6°C° 0 mm 1 mps 729 mmHg 41%
    05:00 +6°C° 0 mm 1 mps 729 mmHg 41%
    06:00 +7°C° 0 mm 1 mps 729 mmHg 39%
    07:00 +9°C° 0 mm 1 mps 730 mmHg 36%
    08:00 +11°C° 0 mm 1 mps 730 mmHg 34%
    09:00 +13°C° 0 mm 1 mps 730 mmHg 33%
    10:00 +15°C° 0 mm 2 mps 730 mmHg 31%
    11:00 +17°C° 0 mm 2 mps 729 mmHg 29%
    12:00 +18°C° 0 mm 3 mps 729 mmHg 30%
    13:00 +19°C° 0 mm 3 mps 728 mmHg 32%
    14:00 +20°C° 0 mm 4 mps 728 mmHg 33%
    15:00 +18°C° 0 mm 3 mps 728 mmHg 38%
    16:00 +17°C° 0 mm 3 mps 728 mmHg 43%
    17:00 +14°C° 0 mm 3 mps 727 mmHg 49%
    18:00 +14°C° 0 mm 3 mps 728 mmHg 51%
    19:00 +13°C° 0 mm 3 mps 728 mmHg 53%
    20:00 +12°C° 0 mm 4 mps 729 mmHg 55%
    21:00 +12°C° 0 mm 5 mps 729 mmHg 57%
    22:00 +10°C° 0 mm 5 mps 730 mmHg 58%
    23:00 +10°C° 0 mm 6 mps 730 mmHg 60%
    Show more